Weather History for Albany, NY

Change the Weather History Date:

Saturday, January 26, 2013

  Actual Average Record
Temperature  
Mean Temperature 14 °F 22 °F  
Max Temperature 21 °F 31 °F 59 °F (1950)
Min Temperature 6 °F 14 °F -17 °F (1920)
Degree Days  
Heating Degree Days 51 42  
Month to date heating degree days 1047 1108  
Since 1 July heating degree days 3309 3643  
Cooling Degree Days 0 0  
Month to date cooling degree days 0 0  
Year to date cooling degree days 0 0  
Moisture  
Dew Point 4 °F    
Average Humidity 67    
Maximum Humidity 88    
Minimum Humidity 45    
Precipitation  
Precipitation T in 0.08 in 1.78 in (1986)
Month to date precipitation 0.56 2.18  
Year to date precipitation 0.56 2.18  
Snow  
Snow 0.20 in 0.60 in 8.50 in (1949)
Month to date snowfall 4.6 15.0  
Since 1 July snowfall 18.0 31.5  
Snow Depth 1.00 in    
Sea Level Pressure  
Sea Level Pressure 30.20 in    
Wind  
Wind Speed 7 mph (NNW)    
Max Wind Speed 20 mph    
Max Gust Speed 24 mph    
Visibility 9 miles    
Events Snow    
T = Trace of Precipitation, MM = Missing Value Source: NWS Daily Summary

Daily Weather History Graph

Daily Weather History Graph

Search for Another Location

Airport:

Trip Planner

Search our weather history database for the weather conditions in past years. The results will help you decide how hot, cold, wet, or windy it might be!

Date:

Astronomy

Jan. 26, 2013 Rise Set
Actual Time 7:15 AM EST 5:00 PM EST
Civil Twilight 6:44 AM EST 5:31 PM EST
Nautical Twilight 6:10 AM EST 6:05 PM EST
Astronomical Twilight 5:37 AM EST 6:38 PM EST
Moon 4:54 PM EST (1/26) 6:30 AM EST (1/26)
Length of Visible Light 10h 46m
Length of Day
9h 45m
Full, 100% of the Moon is Illuminated
Jan 26
Full
Jan 26
Full
Feb 3
Last Quarter
Feb 10
New
Feb 17
First Quarter

Hourly Weather History & Observations

Time (EST) Temp. Windchill Dew Point Humidity Pressure Visibility Wind Dir Wind Speed Gust Speed Precip Events Conditions
12:51 AM 10.4 °F - 6.8 °F 85% 30.09 in 10.0 mi Calm Calm - N/A Snow Light Snow
1:51 AM 10.0 °F 1.8 °F 6.1 °F 84% 30.10 in 8.0 mi North 4.6 mph - 0.00 in Snow Light Snow
2:51 AM 8.1 °F 1.4 °F 5.0 °F 87% 30.10 in 8.0 mi NNW 3.5 mph - 0.00 in Snow Light Snow
3:51 AM 7.0 °F -1.7 °F 3.9 °F 87% 30.10 in 8.0 mi North 4.6 mph - 0.00 in Snow Light Snow
4:51 AM 7.0 °F 0.1 °F 3.9 °F 87% 30.11 in 8.0 mi NNW 3.5 mph - 0.00 in Snow Light Snow
5:51 AM 9.0 °F 0.6 °F 5.0 °F 84% 30.13 in 8.0 mi NNW 4.6 mph - 0.00 in Snow Light Snow
6:51 AM 10.0 °F -0.9 °F 6.1 °F 84% 30.15 in 6.0 mi North 6.9 mph - 0.00 in Snow Light Snow
7:45 AM 8.6 °F -1.3 °F 5.0 °F 85% 30.15 in 10.0 mi NNW 5.8 mph - 0.00 in Snow Light Snow
7:51 AM 9.0 °F -0.9 °F 5.0 °F 84% 30.17 in 10.0 mi North 5.8 mph - 0.00 in Snow Light Snow
8:03 AM 8.6 °F -1.3 °F 5.0 °F 85% 30.15 in 10.0 mi NNW 5.8 mph - 0.00 in Snow Light Snow
8:23 AM 8.6 °F -1.3 °F 5.0 °F 85% 30.16 in 10.0 mi NNW 5.8 mph - 0.00 in Snow Light Snow
8:51 AM 10.0 °F 1.8 °F 5.0 °F 80% 30.19 in 10.0 mi NNW 4.6 mph - 0.00 in Snow Light Snow
9:11 AM 10.4 °F 2.2 °F 5.0 °F 79% 30.17 in 10.0 mi North 4.6 mph - 0.00 in Snow Light Snow
9:31 AM 10.4 °F 2.2 °F 3.2 °F 73% 30.18 in 10.0 mi North 4.6 mph - 0.00 in Snow Light Snow
9:51 AM 10.9 °F 2.9 °F 5.0 °F 77% 30.20 in 10.0 mi NNE 4.6 mph - 0.00 in Snow Light Snow
10:25 AM 12.2 °F 6.1 °F 5.0 °F 73% 30.19 in 10.0 mi NNE 3.5 mph - 0.00 in   Scattered Clouds
10:51 AM 12.9 °F - 5.0 °F 71% 30.21 in 10.0 mi Calm Calm - 0.00 in   Scattered Clouds
11:51 AM 17.1 °F 7.6 °F 3.9 °F 56% 30.19 in 10.0 mi WNW 6.9 mph - N/A   Scattered Clouds
12:51 PM 18.0 °F 7.7 °F 1.9 °F 50% 30.17 in 10.0 mi NNW 8.1 mph - N/A   Scattered Clouds
1:51 PM 19.9 °F 9.3 °F 1.9 °F 46% 30.17 in 10.0 mi WNW 9.2 mph - N/A   Scattered Clouds
2:51 PM 19.9 °F 9.3 °F 3.9 °F 50% 30.19 in 10.0 mi WNW 9.2 mph - N/A   Mostly Cloudy
3:51 PM 19.4 °F 4.1 °F 3.2 °F 49% 30.18 in 10.0 mi West 18.4 mph - N/A   Mostly Cloudy
4:51 PM 18.0 °F 1.7 °F 1.9 °F 50% 30.22 in 10.0 mi WNW 19.6 mph 24.2 mph N/A   Scattered Clouds
5:51 PM 16.0 °F 2.3 °F 1.9 °F 54% 30.26 in 10.0 mi WNW 12.7 mph - N/A   Clear
6:51 PM 16.0 °F 1.7 °F 1.9 °F 54% 30.29 in 10.0 mi NW 13.8 mph - N/A   Clear
7:51 PM 15.1 °F 1.8 °F 1.0 °F 54% 30.30 in 10.0 mi NW 11.5 mph - N/A   Clear
8:51 PM 14.0 °F 2.0 °F 3.0 °F 62% 30.32 in 10.0 mi WNW 9.2 mph - N/A   Clear
9:51 PM 12.9 °F 2.6 °F 1.9 °F 62% 30.34 in 10.0 mi WNW 6.9 mph - N/A   Partly Cloudy
10:51 PM 10.9 °F 1.4 °F 1.0 °F 64% 30.36 in 10.0 mi NW 5.8 mph - N/A   Partly Cloudy
11:51 PM 10.9 °F 4.7 °F 1.9 °F 67% 30.36 in 10.0 mi NNW 3.5 mph - N/A   Partly Cloudy